Flag for Australia Weather past 2 weeks in Melbourne, Victoria, Australia

Now
52 °F

Clear.


Feels Like: 47 °F
Forecast: 48 / 52 °F
Wind: 16 mph from North

Location: Melbourne Airport

Current Time: Jul 2, 2015 at 2:11:45 AM

Latest Report: Jul 2, 2015 at 1:00 AM


Visibility: 10 mi

Pressure: 30.12 "Hg

Humidity: 72%

Dew point: 43 °F

Location of MelbourneLocation

Historic Weather in Melbourne — Graph

°F

Melbourne temperature yesterday

Maximum temperature yesterday: 57 °F (at 1:00 PM)
Minimum temperature yesterday: 46 °F (at 4:00 AM)
Average temperature yesterday: 51 °F

Past Weeks' High & Low Weather Summary

 TemperatureHumidityPressure
High63 °F (Jun 23, 3:00 PM)100% (Jun 17, 2:00 AM)30.54 "Hg (Jun 17, 2:00 AM)
Low34 °F (Jun 21, 7:00 AM)36% (Jul 1, 11:30 AM)29.89 "Hg (Jun 17, 5:00 AM)
Average49 °F77%30.28 "Hg
* Reported Jun 17 1:00 AM — Jul 2 1:00 AM, Melbourne, Weather by CustomWeather, © 2015

Note: Actual official high and low records may vary slightly from our data, if they occured in-between our weather recording intervals... More about our weather records

Advertising

Melbourne weather history for previous 24 hours

 ConditionsComfort  
Time TempWeatherWind HumidityBarometerVisibility
1:00 AM
Thu, Jul 2
52 °FClear.16 mph72%30.12 "Hg10 mi
12:30 AM52 °FClear.18 mph72%30.12 "Hg10 mi
12:00 AM52 °FClear.16 mph72%30.12 "Hg10 mi
11:30 PM
Wed, Jul 1
52 °FClear.15 mph72%30.15 "Hg10 mi
11:00 PM50 °FPassing clouds.17 mph71%30.15 "HgN/A
10:30 PM50 °FPassing clouds.17 mph71%30.15 "HgN/A
10:00 PM50 °FPassing clouds.18 mph71%30.18 "HgN/A
9:30 PM52 °FPassing clouds.15 mph67%30.18 "HgN/A
9:00 PM52 °FPassing clouds.16 mph62%30.18 "HgN/A
8:00 PM50 °FPartly cloudy.14 mph62%30.18 "HgN/A
7:30 PM52 °FPassing clouds.13 mph58%30.18 "HgN/A
7:00 PM52 °FClear.13 mph54%30.18 "Hg10 mi
6:30 PM50 °FPartly cloudy.13 mph62%30.18 "HgN/A
6:00 PM52 °FPartly cloudy.14 mph58%30.18 "HgN/A
5:30 PM52 °FPartly cloudy.13 mph58%30.18 "HgN/A
4:30 PM54 °FPartly cloudy.12 mph51%30.21 "HgN/A
4:00 PM55 °FBroken clouds.12 mph47%30.21 "HgN/A
3:30 PM55 °FPartly sunny.12 mph47%30.21 "HgN/A
3:00 PM55 °FPartly sunny.12 mph44%30.21 "HgN/A
2:30 PM55 °FPartly sunny.15 mph44%30.24 "HgN/A
2:00 PM55 °FPartly sunny.17 mph44%30.24 "HgN/A
1:30 PM55 °FPartly sunny.12 mph44%30.24 "HgN/A
1:00 PM57 °FScattered clouds.12 mph39%30.27 "HgN/A
12:30 PM55 °FScattered clouds.15 mph38%30.27 "HgN/A
12:00 PM55 °FScattered clouds.10 mph38%30.30 "HgN/A
11:30 AM55 °FScattered clouds.14 mph36%30.30 "HgN/A
11:00 AM54 °FPartly sunny.13 mph41%30.33 "HgN/A
10:30 AM54 °FPartly sunny.13 mph44%30.36 "HgN/A
10:00 AM52 °FPartly sunny.8 mph50%30.36 "HgN/A
9:30 AM50 °FPartly sunny.12 mph67%30.36 "HgN/A
9:00 AM50 °FPartly sunny.9 mph67%30.36 "HgN/A
8:30 AM48 °FPartly sunny.8 mph76%30.36 "HgN/A
8:00 AM48 °FPartly sunny.8 mph82%30.36 "HgN/A
7:30 AM48 °FPartly sunny.7 mph76%30.33 "HgN/A
7:00 AM48 °FPartly sunny.6 mph82%30.33 "HgN/A
6:30 AM46 °FPassing clouds.9 mph87%30.33 "HgN/A
6:00 AM46 °FPassing clouds.7 mph93%30.33 "HgN/A
5:30 AM46 °FPassing clouds.6 mph93%30.33 "HgN/A
5:00 AM48 °FPassing clouds.6 mph87%30.33 "HgN/A
4:00 AM46 °FPassing clouds.6 mph93%30.33 "HgN/A
3:00 AM48 °FPassing clouds.7 mph94%30.33 "HgN/A
2:30 AM48 °FScattered showers. Partly cloudy.3 mph94%30.33 "HgN/A
2:00 AM48 °FSprinkles. Passing clouds.9 mph94%30.36 "Hg6 mi
Weather by CustomWeather, © 2015

See weather overviewHow to use our weather pages